Location: Artiguedieu
(43.5000°N, 0.5454°E)
Time: 09:05:45
(UTC+00:00)

Explorer 7 - Pass Details

Date: 04 August 2021
Orbit: 484 x 676 km, 50.3° (Epoch: 22 September)

Event Time Altitude Azimuth Distance (km) Brightness Sun altitude
Rises 07:06:55 0° 292° (WNW) 2,596 9.7 23.0°
Reaches altitude 10° 07:09:14 10° 303° (WNW) 1,735 9.0 23.4°
Maximum altitude 07:12:47 31° 7° (N) 939 8.3 24.1°
Drops below altitude 10° 07:16:30 10° 71° (ENE) 1,826 11.0 24.8°
Sets 07:19:00 0° 82° (E) 2,758 11.7 25.2°
